RH
25 21 24 29 29 28 25 25 26 24 25 27 26 28 29 25 27 36 40 38 35 35 35 34 36 37 37 35 34 37 39 39 41 43 44 47 49 51 51 51 50 50 51 52 53 55 54 53 52 50 47 44 42 39 36 35 32 30 28 27 26 25 23 23 22 21 21 20 20 19 18 17 15 15 15 13 11 10 8 7 6 6 5 4 4 4
27 26 31 33 28 28 29 30 31 30 30 31 31 31 28 26 31 37 39 38 36 37 38 36 39 41 38 35 34 35 37 38 40 42 45 47 50 51 52 52 50 49 49 48 50 53 55 54 51 48 46 42 39 36 33 32 30 28 26 25 24 22 21 21 19 19 18 17 17 17 17 16 14 14 15 14 13 12 11 10 9 8 7 6 6 5
26 31 33 30 28 31 33 34 34 35 36 34 31 30 27 30 37 41 43 39 32 35 40 39 42 43 38 35 35 37 39 41 43 44 45 47 49 51 52 51 49 48 48 47 49 51 54 55 51 48 45 42 39 36 34 32 31 29 28 27 25 24 22 20 19 18 17 15 15 14 13 13 12 12 12 12 12 11 11 11 10 10 10 9 9 8
26 34 32 31 35 35 32 33 35 36 34 31 29 27 27 34 39 38 44 44 35 35 38 40 44 44 40 38 38 41 45 48 49 50 50 51 52 52 52 51 49 49 48 49 50 51 54 55 54 51 48 45 41 37 35 34 33 32 31 30 27 25 23 21 19 17 16 15 14 13 12 11 11 11 11 10 10 9 10 9 9 10 9 9 9 8
31 32 33 37 37 32 29 30 34 35 27 24 30 30 28 33 35 36 43 43 39 39 39 41 46 46 44 44 42 43 45 48 50 52 53 54 55 55 54 53 52 51 51 50 52 54 55 56 58 55 51 47 43 40 40 38 38 37 35 33 29 25 22 19 17 15 15 14 13 12 11 11 11 10 10 9 9 9 8 8 8 8 8 8 8 7
32 32 35 36 31 28 31 32 36 37 27 24 35 38 32 31 33 40 44 41 40 43 42 41 44 46 45 44 44 43 42 44 47 49 51 52 53 53 52 52 52 53 54 53 55 57 58 60 60 57 52 49 47 46 47 45 43 42 39 34 28 22 19 17 15 14 14 12 12 11 11 11 10 10 10 9 9 8 7 8 7 6 7 6 7 8
31 32 33 32 30 28 29 32 35 38 30 27 37 41 35 32 33 40 43 40 37 39 42 42 40 42 45 45 43 43 42 44 46 47 49 50 50 52 52 52 53 53 55 56 56 59 63 64 61 58 56 54 54 52 50 48 45 43 38 30 23 18 15 15 14 13 12 11 10 10 10 10 9 9 9 9 8 7 7 7 6 6 6 7 12 12
35 34 34 32 30 25 25 29 33 39 36 33 41 41 36 34 35 37 39 39 33 33 43 43 39 39 43 45 42 42 45 47 47 46 47 48 50 53 55 56 56 56 57 57 59 62 64 63 59 60 62 61 59 54 50 49 46 42 33 22 16 14 13 13 12 11 10 9 8 8 9 9 8 8 9 9 7 6 7 6 7 7 7 14 21 17
43 39 43 40 29 24 28 31 34 42 41 39 43 39 35 36 36 35 36 35 30 33 41 39 40 43 44 47 44 42 47 49 49 47 46 49 52 54 57 58 59 60 60 59 62 65 64 63 61 63 65 62 58 53 50 49 46 37 25 15 11 10 11 10 9 9 8 8 7 7 9 8 7 9 10 10 7 7 7 6 8 8 10 20 24 19
46 44 47 39 29 29 32 32 38 44 39 39 43 40 39 38 37 35 33 33 32 40 43 34 35 42 45 50 46 44 49 48 49 48 47 51 54 56 57 58 60 62 64 65 68 70 70 69 66 65 64 59 56 52 49 48 42 29 16 10 8 8 9 8 8 8 7 7 7 8 11 8 7 9 10 11 9 7 8 7 9 10 13 20 23 24
49 52 51 38 33 36 33 34 43 45 37 40 44 39 36 34 32 31 28 30 35 43 42 31 32 37 43 49 46 47 49 44 47 49 49 53 54 56 57 58 61 62 68 74 73 72 74 74 69 67 64 59 57 53 50 47 35 22 12 7 7 7 7 7 7 7 7 7 7 9 12 9 8 9 10 13 11 7 8 9 12 14 12 15 21 26
45 45 43 41 43 39 33 33 43 48 43 42 37 27 26 25 25 28 28 33 41 44 37 30 32 34 44 55 52 50 48 41 46 50 49 54 56 59 62 64 70 73 79 85 79 74 75 75 72 67 62 59 59 55 52 45 28 18 15 8 6 7 7 7 7 7 7 8 8 8 10 10 9 9 14 25 23 14 13 14 16 17 14 15 17 20
34 34 35 43 44 35 30 28 33 40 37 32 26 22 29 30 31 36 33 33 37 37 32 30 33 35 50 63 55 50 48 43 47 50 52 58 62 68 73 77 81 83 89 93 86 78 76 75 72 67 63 61 61 59 54 42 23 18 19 10 6 7 6 6 7 7 7 8 9 10 12 14 12 13 23 38 40 32 28 26 23 21 22 22 19 17
28 33 32 35 34 30 30 27 30 33 28 26 26 27 35 41 52 57 46 41 43 39 33 31 37 47 62 68 56 50 53 52 55 60 64 69 71 77 82 84 88 89 93 98 95 86 78 75 72 68 66 64 62 61 54 38 21 18 20 15 12 15 14 14 15 14 12 14 17 19 25 27 22 22 29 37 42 43 40 35 28 26 30 32 29 25
30 32 31 31 30 28 31 34 39 39 32 28 25 27 35 43 59 66 56 56 58 49 39 36 45 62 73 70 56 54 61 65 69 73 76 79 81 84 84 82 85 89 91 94 94 87 78 75 71 67 66 66 64 62 52 39 29 30 33 30 33 37 33 30 28 22 16 20 26 29 37 42 33 29 31 33 35 37 35 31 28 29 35 37 34 32
30 29 32 35 31 27 31 37 39 40 36 27 22 29 37 38 45 52 50 50 55 55 51 50 59 67 69 64 55 56 63 68 74 78 79 80 81 80 77 72 72 81 86 86 86 80 73 71 69 65 66 66 65 63 56 44 41 49 47 38 41 44 37 33 32 25 21 24 29 34 46 53 42 32 34 35 29 26 27 30 32 36 39 40 38 37
36 31 29 33 33 27 31 36 35 36 35 28 28 34 35 33 37 46 47 39 45 54 49 49 61 66 67 68 60 58 62 64 69 76 76 76 76 73 70 65 64 73 81 79 76 71 66 66 65 62 64 67 65 62 56 43 40 51 51 39 37 39 34 31 32 29 25 26 29 39 54 58 48 39 38 36 27 23 26 32 36 39 42 45 47 46
42 37 27 27 32 31 34 39 37 36 33 30 34 35 30 33 35 39 45 43 44 46 36 40 58 65 69 75 67 61 65 64 65 72 74 70 69 67 63 58 57 65 72 69 67 64 61 62 61 58 60 65 64 59 52 42 39 49 54 47 42 40 36 34 33 32 29 28 34 48 59 57 50 46 40 32 26 26 31 37 39 42 44 45 49 53
38 38 29 24 27 29 31 36 36 33 30 29 34 31 29 40 39 33 41 47 48 48 42 43 54 61 66 70 66 62 63 61 60 67 70 61 57 59 58 51 49 54 59 59 57 54 54 57 57 56 58 60 61 57 51 48 46 49 54 51 46 45 45 43 43 43 39 38 47 57 59 55 54 53 45 37 36 39 42 45 47 51 53 53 58 64
35 35 30 23 24 26 25 31 36 34 30 28 31 30 31 39 37 33 39 44 49 54 52 48 48 56 61 58 56 55 53 55 57 59 60 54 50 53 53 48 45 48 52 52 50 48 50 54 55 56 57 56 57 55 52 51 51 51 53 51 48 49 50 49 51 51 43 44 55 59 56 55 53 51 49 49 51 51 49 50 54 58 62 65 69 73
35 30 27 22 20 24 29 33 35 35 33 33 36 40 41 39 34 34 40 45 49 51 55 58 51 50 54 48 46 48 46 48 51 51 51 49 47 47 48 46 44 47 49 46 47 48 49 52 53 54 53 52 52 52 51 52 53 55 54 52 51 52 51 50 50 45 39 43 54 54 50 52 52 49 52 54 56 59 59 58 61 66 69 71 74 76
38 29 30 26 17 23 35 36 33 32 32 33 38 42 43 42 43 43 43 47 50 48 55 63 55 49 50 43 40 43 42 44 47 47 47 46 44 45 46 44 43 47 48 46 48 50 49 51 53 52 49 46 46 47 50 54 55 56 56 54 54 53 50 47 43 39 42 51 56 51 48 52 55 55 57 59 63 68 69 68 71 74 76 76 74 75
45 33 33 28 21 29 36 35 35 34 31 31 35 38 39 43 48 47 45 48 49 46 47 49 45 47 50 41 39 42 41 44 47 45 45 45 44 45 44 42 41 43 46 48 50 50 50 51 51 49 45 42 44 48 52 56 56 57 58 55 54 54 50 44 41 44 53 62 62 59 58 60 62 62 64 68 72 73 74 75 78 77 76 76 76 77
45 32 33 27 22 34 38 36 38 37 33 34 37 40 42 48 54 54 53 54 52 47 44 38 35 43 48 41 38 41 42 44 44 43 44 44 44 43 43 41 39 41 45 48 50 51 50 51 50 46 43 42 46 52 55 57 58 58 58 56 55 54 48 42 43 50 58 63 64 64 66 67 68 70 72 75 76 76 76 76 76 78 80 82 84 84
44 26 28 25 18 28 34 34 37 35 34 35 37 43 49 56 65 65 59 57 54 47 41 38 36 39 43 43 39 40 43 42 41 42 43 42 42 42 41 39 37 41 45 47 49 51 51 51 49 44 42 45 50 55 56 57 58 59 58 58 56 53 49 48 54 61 65 67 69 70 70 72 73 74 74 75 75 77 78 76 78 85 86 85 86 86
45 25 24 25 18 22 27 31 37 38 35 35 40 50 55 61 70 66 52 46 44 40 37 40 41 34 33 38 40 40 40 38 38 41 42 42 41 41 39 37 37 42 46 48 50 51 51 50 47 43 43 48 51 54 54 55 58 60 59 58 58 57 58 61 65 69 71 73 74 74 75 74 74 73 73 75 77 78 81 83 87 88 85 84 87 89
47 29 27 31 25 25 30 34 40 40 36 39 50 59 57 59 67 62 47 37 37 42 42 37 35 32 27 27 30 35 38 38 39 41 42 42 40 39 37 36 41 46 47 50 51 51 52 49 44 42 44 49 52 53 55 57 61 62 61 62 62 63 64 65 68 71 73 75 76 75 75 73 72 74 76 80 83 84 85 88 90 88 86 89 92 93
43 32 42 51 40 33 34 34 37 40 38 41 53 62 56 55 63 60 49 40 39 46 41 26 26 34 30 23 27 37 39 39 41 42 42 42 39 37 34 35 44 48 47 50 52 51 52 48 42 42 47 51 54 55 58 62 64 65 65 65 64 64 66 68 71 72 74 75 74 73 74 75 78 83 84 87 90 90 90 90 90 90 89 91 93 94
41 34 55 70 51 34 33 35 37 38 39 42 49 54 51 53 63 65 59 49 45 46 38 26 30 36 31 26 32 41 42 42 44 43 42 42 38 35 34 36 43 46 47 50 51 52 52 46 41 45 50 54 56 58 62 64 65 66 66 65 64 65 68 71 71 72 74 75 75 76 79 83 86 90 91 93 94 93 92 91 91 91 91 92 93 93
44 40 61 72 56 37 32 36 38 37 40 47 49 47 45 47 55 61 59 48 45 46 38 32 36 36 31 34 38 42 45 44 42 41 41 40 37 35 34 37 43 46 48 50 52 53 50 44 44 49 53 57 59 61 65 67 67 66 64 65 67 67 70 73 73 73 75 77 79 81 86 90 93 94 94 95 96 94 93 93 92 91 90 90 89 88
42 43 60 63 49 36 34 38 40 36 37 45 46 43 43 43 46 55 56 47 47 49 40 38 45 42 37 40 42 43 46 43 39 40 41 39 36 34 35 40 46 48 49 52 54 53 48 44 48 53 56 61 63 66 69 70 68 65 64 67 69 69 71 73 73 74 76 80 83 87 89 92 94 95 92 90 90 91 89 88 87 86 85 84 83 83
38 36 45 45 32 24 29 33 30 31 40 50 50 43 40 42 44 48 48 44 46 49 48 51 52 42 37 40 42 42 43 42 40 40 40 39 35 35 38 44 49 49 51 55 55 51 48 47 51 56 60 64 68 71 72 70 68 68 69 68 65 65 69 69 73 81 84 84 86 89 91 93 93 92 88 85 85 84 83 82 81 81 81 80 79 76
56 43 31 31 27 19 20 19 19 32 46 50 47 41 38 42 42 39 36 34 34 39 45 50 43 32 34 40 41 41 40 42 42 41 41 41 37 37 42 45 47 50 52 54 53 50 49 49 53 58 62 69 74 76 72 68 71 75 74 68 63 63 66 68 76 88 92 91 91 93 94 94 92 88 84 83 83 82 82 83 84 83 82 79 77 73
66 49 26 27 30 22 19 17 20 34 39 36 37 39 41 43 41 39 37 32 30 31 33 36 32 29 35 40 40 41 42 43 45 44 43 42 39 41 45 46 48 50 51 51 51 51 50 51 56 60 65 73 78 77 71 66 70 74 70 64 61 60 65 73 80 85 89 90 92 92 90 90 88 84 82 82 82 82 84 86 85 84 82 79 76 71
44 32 24 30 30 24 22 24 28 34 36 37 40 40 42 43 40 40 39 34 33 34 31 33 34 33 37 40 40 42 44 47 49 47 42 42 44 47 48 50 51 49 50 52 52 52 52 53 58 63 69 74 72 68 66 64 67 71 66 60 60 64 73 82 84 84 87 87 87 87 87 87 85 82 80 81 81 83 84 85 84 82 80 79 74 69
26 23 23 26 26 24 25 29 33 33 35 41 43 43 45 43 38 43 45 35 29 32 34 36 37 36 39 43 42 43 48 51 48 44 43 47 52 55 55 56 55 52 54 56 54 54 54 55 62 70 76 76 68 64 69 68 67 68 63 61 67 74 82 87 84 84 86 86 85 87 88 88 85 82 82 82 82 83 83 83 81 80 80 77 72 68
20 21 21 23 28 28 26 28 28 25 29 38 43 42 42 39 36 44 53 44 30 33 40 39 37 40 42 44 45 46 51 51 42 39 46 54 56 60 61 60 57 56 58 58 54 53 52 56 66 74 74 69 63 66 73 68 62 63 64 66 75 80 82 81 78 80 84 85 87 89 89 88 86 85 85 85 84 83 83 82 80 80 80 76 70 67
17 17 18 24 29 28 27 31 31 29 30 34 39 41 42 44 41 43 56 55 38 37 44 41 40 44 45 46 48 47 52 54 40 33 47 58 56 57 57 55 56 59 59 56 52 51 51 55 63 68 66 63 61 65 68 61 58 66 71 72 75 77 75 73 73 79 85 86 87 88 88 88 87 87 87 85 84 84 83 82 81 80 80 76 70 68
20 20 21 24 26 26 29 31 33 33 28 27 37 44 45 49 47 48 60 59 43 40 46 44 45 47 47 50 52 51 57 61 42 27 42 57 55 52 49 49 57 63 59 52 50 50 49 48 50 55 58 60 60 62 63 57 59 68 69 67 70 71 69 69 73 81 86 85 86 87 86 88 89 89 87 84 83 83 83 82 81 80 81 79 73 71
26 24 24 24 23 28 33 32 28 26 25 29 39 44 45 48 51 55 60 54 44 44 47 46 48 49 49 54 57 55 57 55 40 31 45 56 53 47 45 50 60 64 58 51 47 45 43 40 40 44 50 53 53 56 61 61 61 63 60 60 65 66 66 69 75 81 84 83 83 84 85 88 88 87 86 85 83 82 81 81 81 81 82 80 75 75
35 31 26 26 26 29 37 37 28 23 29 37 40 41 47 52 52 52 50 45 43 44 44 46 49 50 52 56 58 55 50 45 40 43 53 55 48 42 46 54 62 64 59 52 48 51 55 52 43 40 47 53 53 63 77 77 66 62 60 60 63 65 67 72 77 80 81 80 81 83 83 84 84 85 85 84 83 82 80 80 81 82 83 82 76 75
36 35 31 30 29 26 30 35 30 26 32 39 40 43 50 50 43 39 38 39 40 41 43 48 50 51 55 58 59 57 51 46 48 54 56 51 44 44 49 57 65 66 58 52 54 63 66 57 43 42 51 54 54 70 92 89 71 64 64 63 66 70 72 75 78 79 78 79 81 82 80 79 81 84 84 82 83 83 80 80 82 82 84 85 79 76
34 32 27 25 27 26 28 34 34 30 33 38 39 42 46 40 33 33 37 39 40 41 45 49 51 55 59 60 60 58 53 51 55 57 52 45 44 46 51 59 66 63 51 47 53 57 52 44 41 45 50 52 53 67 85 84 72 66 66 66 71 76 76 78 79 78 78 80 81 79 77 78 81 82 82 82 82 82 81 81 82 81 83 86 84 84
39 31 22 22 27 28 28 28 25 23 29 34 32 28 29 30 32 39 43 41 42 45 48 50 53 58 61 62 63 60 56 57 58 54 47 44 45 49 54 61 60 48 37 37 42 41 36 35 39 43 44 48 54 61 69 73 70 66 67 70 75 77 77 77 77 78 79 80 79 77 77 78 79 80 81 81 80 81 82 83 83 81 83 88 90 93
35 28 23 25 28 26 23 20 16 16 22 28 29 27 28 31 37 44 46 45 47 51 52 53 58 61 63 63 63 61 60 60 57 50 46 46 47 51 58 59 50 37 31 33 34 32 31 33 38 42 43 46 52 57 61 66 68 68 68 71 74 76 76 76 76 78 79 78 78 78 78 78 78 79 81 80 79 81 84 84 85 84 84 88 93 98
27 27 27 29 29 26 23 20 19 19 19 22 28 33 35 38 41 45 48 49 52 54 56 59 62 64 66 67 65 64 63 61 55 49 48 49 52 55 56 50 38 30 28 30 30 30 31 34 39 43 44 45 50 56 59 63 68 70 70 70 74 76 76 77 77 78 78 78 79 78 77 77 78 80 81 81 80 82 85 86 87 86 85 88 94 100
27 29 29 28 29 30 26 18 17 20 20 22 27 32 37 41 45 47 50 53 56 60 63 65 66 67 70 70 67 65 64 61 55 50 49 53 55 52 48 42 35 31 29 30 32 33 34 38 42 45 47 48 51 55 59 63 69 72 72 73 76 77 77 79 79 78 79 80 79 77 77 79 81 82 83 82 81 82 85 88 89 88 86 88 93 99
31 34 30 25 26 28 23 16 16 19 21 23 26 30 33 39 44 49 52 57 62 66 68 68 69 72 73 70 68 68 66 60 55 52 53 54 49 42 40 41 38 33 30 31 33 34 36 41 45 47 49 51 52 55 59 63 68 72 73 74 77 78 79 80 79 79 80 81 79 78 79 81 84 85 83 84 84 84 84 87 91 91 89 89 92 97
32 34 28 23 25 26 22 18 20 22 22 23 27 32 36 40 45 51 56 60 65 67 68 68 70 74 75 71 67 67 64 56 50 51 51 45 38 35 38 39 35 29 28 30 31 33 36 42 46 49 51 52 53 55 58 61 65 70 72 73 77 80 80 80 80 80 80 81 81 80 82 85 87 86 85 84 86 85 83 84 89 92 91 90 91 95
34 30 25 28 32 30 23 18 20 23 22 22 27 35 41 44 48 53 58 63 65 65 65 67 70 74 75 71 66 64 59 50 46 45 42 35 31 31 33 33 30 27 28 30 31 32 36 41 46 50 52 53 54 55 57 60 63 66 68 71 75 79 80 82 83 80 79 82 84 84 86 88 87 87 86 85 86 87 83 80 82 88 92 94 90 89
29 23 22 25 25 21 16 15 21 26 24 24 29 36 41 44 48 54 59 64 65 64 65 69 74 75 72 69 68 65 55 43 37 36 32 28 28 28 27 28 29 29 29 31 32 33 36 39 44 48 51 53 54 54 56 59 60 62 63 66 69 72 76 81 81 78 76 81 85 86 88 90 88 88 88 87 88 90 88 83 80 80 86 92 91 85
Wind_Speed
2 4 2 3 5 7 8 8 8 9 9 9 9 8 9 9 4 5 8 4 3 4 5 8 10 10 9 8 9 10 10 11 12 12 13 13 13 14 15 15 15 16 16 15 17 19 19 20 20 20 21 21 20 21 21 20 21 21 20 19 18 18 18 17 16 16 16 16 16 16 16 16 16 17 19 18 19 20 19 20 21 21 21 21 21 21
2 3 4 7 8 8 7 7 7 8 7 7 8 7 9 8 1 6 6 3 0 1 5 9 10 9 9 8 8 9 9 9 10 11 12 13 13 13 14 14 14 14 13 14 16 18 19 20 20 21 23 23 23 24 24 23 23 23 22 22 21 21 21 20 20 20 20 20 19 19 19 19 18 19 21 20 21 21 20 20 20 20 21 21 20 20
2 2 7 8 7 6 5 4 5 6 7 7 6 6 7 3 4 5 5 3 1 2 6 9 8 8 8 8 7 8 8 8 10 11 11 12 12 12 12 12 12 12 12 13 15 16 18 20 21 23 25 25 26 26 25 25 24 23 23 23 23 23 22 22 22 22 22 21 20 20 19 20 19 19 21 22 22 23 22 22 22 22 21 21 21 21
2 5 8 7 6 6 5 3 5 6 6 6 5 6 5 1 2 1 2 4 1 1 7 9 7 6 7 7 7 8 10 11 11 11 11 11 12 12 12 11 11 12 12 13 14 15 16 19 21 24 25 26 26 26 26 25 25 24 24 24 25 25 25 25 24 23 23 22 21 20 19 19 20 20 21 22 23 23 24 24 24 24 24 23 23 23
4 6 7 6 4 6 7 5 5 5 6 5 2 5 6 4 4 2 5 6 3 3 9 10 4 5 8 8 7 8 10 12 11 12 12 12 12 12 12 12 12 12 12 12 13 14 14 17 20 22 24 25 25 26 26 26 26 26 26 26 26 27 27 27 26 25 24 23 22 21 21 20 20 21 22 23 24 24 24 24 25 25 25 25 24 24
6 5 5 7 5 7 6 4 8 7 7 4 4 6 8 8 6 4 8 7 3 3 10 10 4 3 9 9 8 8 9 10 10 11 11 11 11 10 10 11 11 11 12 12 12 13 14 16 18 21 23 23 24 25 25 25 25 25 26 27 27 28 28 27 27 26 24 24 23 23 23 23 23 23 23 23 24 25 25 25 25 25 25 25 25 25
4 4 4 7 7 7 4 4 9 9 7 4 4 7 7 7 5 4 7 6 4 2 9 12 7 1 6 9 10 10 8 9 9 9 10 9 9 9 9 9 9 10 10 11 12 13 14 16 18 20 21 22 23 23 23 23 24 24 25 27 28 28 27 27 26 26 25 24 24 24 24 25 25 25 25 25 26 27 26 26 26 26 26 25 25 26
5 8 8 9 7 6 7 5 8 9 7 3 4 7 7 5 4 5 6 7 6 2 7 12 9 5 3 6 10 11 9 9 8 8 8 8 9 9 9 9 9 10 10 11 12 13 14 16 18 19 20 21 21 22 23 23 23 24 26 28 28 27 26 25 25 25 24 24 24 24 23 25 25 26 26 27 28 28 28 28 27 27 27 25 24 27
6 9 9 11 9 7 7 7 8 8 5 3 4 6 6 5 6 6 6 7 6 4 3 8 9 6 2 7 8 8 9 8 8 7 7 8 8 8 9 9 9 10 10 11 11 11 13 15 16 17 18 19 20 22 23 23 24 26 29 29 28 27 25 25 24 24 23 23 23 22 22 24 25 25 26 27 28 28 28 28 28 27 26 24 25 29
5 6 6 8 8 7 8 7 6 5 4 4 6 7 7 7 7 7 7 7 6 6 8 5 8 6 1 6 6 6 7 7 7 7 6 7 7 7 7 7 7 7 8 9 8 10 13 14 16 17 18 20 22 24 24 24 27 30 31 31 28 27 25 24 24 23 23 22 22 22 21 23 25 24 25 26 28 28 28 29 28 27 26 24 26 28
4 2 3 6 6 6 8 6 2 5 6 6 7 7 7 7 6 6 5 4 5 5 5 6 3 6 2 4 3 1 2 3 7 7 6 8 6 6 5 5 6 5 5 5 7 11 13 14 16 18 19 22 23 25 26 26 30 32 31 30 28 27 26 25 24 24 23 23 22 22 21 23 24 24 25 26 28 28 28 28 28 28 28 26 26 26
6 3 3 3 4 8 9 5 3 6 7 6 6 6 7 5 4 4 4 4 5 3 4 7 3 6 4 3 5 5 5 2 6 6 7 8 6 6 5 5 5 4 2 3 8 12 13 14 15 18 19 21 21 23 25 28 32 31 29 29 28 27 27 26 25 24 23 23 23 22 22 23 24 24 24 24 27 28 28 28 28 29 30 29 28 28
5 6 4 2 2 11 11 6 1 4 4 4 6 7 8 6 3 4 4 4 5 2 5 5 4 5 1 5 6 7 7 5 5 5 7 8 7 6 5 4 3 3 2 3 7 11 13 13 14 16 17 18 18 20 24 28 31 29 27 28 28 27 26 26 25 25 24 24 23 22 22 23 24 24 22 21 24 26 27 28 28 29 30 30 31 30
2 6 7 3 2 12 12 7 5 4 6 7 7 7 7 6 7 7 6 7 6 3 4 5 4 2 3 5 5 7 8 8 9 9 8 8 6 4 3 3 2 3 2 2 4 8 11 12 13 13 13 14 15 18 23 28 31 28 26 27 27 26 26 26 25 25 25 24 23 22 21 22 24 24 23 22 23 25 26 27 29 29 28 29 31 32
3 2 8 7 4 10 10 6 5 7 6 5 6 7 6 6 5 5 6 7 7 8 7 2 1 2 2 3 4 8 9 9 9 9 8 7 4 3 2 3 4 4 3 3 4 6 8 9 10 10 10 12 13 17 23 27 28 25 23 24 23 23 24 24 24 25 25 24 23 22 20 21 24 25 25 24 24 25 27 29 29 29 29 29 31 32
6 3 5 4 4 8 8 4 6 7 4 3 5 5 6 5 3 4 7 7 6 8 7 1 2 3 4 4 5 7 7 6 6 6 6 4 3 1 1 4 6 5 5 5 6 7 7 6 8 9 9 11 12 15 20 24 23 19 20 23 22 21 24 25 25 26 26 25 23 22 20 19 23 26 26 26 27 28 28 29 29 29 30 31 32 33
6 3 4 2 3 6 6 4 6 8 5 4 5 6 7 4 2 5 7 6 6 7 4 1 2 3 3 3 5 5 4 4 4 4 4 2 2 1 4 4 6 6 5 6 8 8 7 6 8 9 10 11 11 14 19 24 23 18 19 24 24 24 26 26 25 26 27 26 25 22 18 19 23 26 26 28 29 30 29 29 29 30 30 30 31 33
4 3 3 4 4 4 1 3 3 9 9 5 4 7 8 3 2 4 7 6 6 7 6 2 3 2 1 1 4 5 5 4 4 5 4 3 3 4 6 6 7 6 6 8 8 7 7 7 8 9 11 11 11 16 21 24 24 18 18 22 24 25 26 26 26 26 27 26 24 20 18 20 23 25 27 29 31 30 30 30 30 31 32 32 32 32
4 3 2 2 3 2 1 2 0 8 11 6 3 6 6 2 2 5 5 6 7 7 7 4 2 2 2 2 1 4 6 5 5 5 5 5 5 7 7 8 8 7 8 8 7 8 8 8 9 10 11 12 12 17 20 20 20 18 17 20 23 24 24 24 23 24 25 25 22 19 20 22 23 24 27 30 30 29 30 30 31 31 31 32 32 31
4 2 1 1 2 2 0 3 3 4 9 6 3 5 5 3 5 5 4 5 6 7 8 7 5 2 3 2 1 2 4 5 5 5 6 6 7 8 8 8 8 8 8 8 7 8 9 9 9 10 12 13 13 16 17 17 18 18 18 20 22 23 23 22 22 23 25 23 20 19 22 23 24 25 27 28 28 29 31 31 30 30 30 30 30 30
3 2 3 3 2 2 1 5 5 5 7 7 6 6 6 5 4 4 3 1 4 7 7 8 8 2 4 1 1 1 1 3 5 5 6 7 8 8 8 8 9 9 8 8 8 8 9 9 9 11 13 14 14 15 16 17 17 17 19 21 22 22 22 23 23 25 26 24 21 22 24 25 25 27 27 27 27 28 30 30 29 29 30 29 28 28
4 2 4 5 2 2 3 4 5 6 7 7 6 6 6 6 5 5 3 2 3 5 4 7 9 2 4 1 1 1 1 2 3 4 5 7 8 8 8 9 10 9 8 7 8 9 9 9 10 12 14 14 15 16 16 16 17 18 20 21 21 21 22 24 25 26 25 23 23 25 27 26 26 27 27 27 27 26 28 30 29 29 28 27 27 27
3 3 5 4 3 5 7 6 4 4 6 8 8 6 5 5 5 4 5 4 5 5 3 6 8 2 3 2 1 1 1 3 3 3 5 7 8 8 9 11 11 9 8 7 8 8 9 9 11 13 15 15 16 16 16 17 17 18 20 21 21 21 23 25 26 25 23 21 23 25 26 26 26 27 27 26 26 26 27 28 28 27 27 27 28 27
2 2 5 4 2 6 7 5 2 2 2 4 6 6 5 4 3 4 5 5 5 5 4 6 8 2 3 3 3 3 3 3 3 5 8 10 10 10 11 12 12 9 8 9 8 8 9 10 12 15 16 16 16 16 16 17 18 19 20 21 22 23 25 27 26 24 22 22 23 24 24 25 26 26 25 24 25 26 26 26 27 27 26 26 27 27
4 2 5 5 2 2 2 2 1 3 2 3 5 5 5 4 4 4 3 3 3 4 6 7 9 3 3 5 4 4 4 3 5 8 11 12 12 12 13 14 12 9 9 10 9 9 10 11 14 16 17 17 17 16 17 18 19 20 21 22 23 24 26 26 25 23 23 23 24 24 24 25 25 24 24 24 26 26 26 26 25 26 25 26 27 28
4 3 5 5 5 5 4 3 2 2 4 2 3 5 6 5 5 3 3 3 3 6 8 7 7 6 2 3 4 5 4 6 9 11 12 12 13 14 15 14 11 10 10 10 10 11 11 13 16 17 17 17 17 17 18 19 19 20 21 22 23 24 24 24 22 22 23 23 24 24 25 24 24 24 25 25 26 26 26 25 24 25 26 26 27 28
2 2 5 4 4 4 5 5 3 4 6 3 3 5 5 4 5 4 3 3 5 7 7 4 7 12 12 8 5 4 5 8 9 10 11 13 15 16 16 14 11 11 11 10 10 11 12 15 17 17 17 17 17 18 19 19 19 21 22 22 22 22 23 22 22 22 23 23 24 24 24 24 24 25 25 25 25 25 26 25 25 25 26 26 26 26
3 1 4 2 4 5 5 5 3 3 4 3 1 2 3 3 4 3 3 3 4 6 7 8 13 15 15 14 10 4 5 7 8 10 12 17 20 18 16 15 12 12 11 10 11 12 14 17 18 17 17 17 18 19 19 18 19 20 21 21 21 21 22 22 22 23 23 23 23 24 24 24 24 23 23 23 22 22 23 25 25 25 26 25 25 26
3 2 3 1 5 6 5 3 3 3 2 1 1 3 2 2 2 1 2 3 3 4 9 14 17 16 15 13 7 4 4 7 10 13 17 21 23 19 18 17 14 13 12 12 13 14 16 18 19 18 18 18 19 19 18 18 19 20 21 21 22 22 22 22 23 23 23 23 24 24 24 24 22 21 21 21 22 23 24 25 25 24 25 25 25 27
2 1 2 1 6 6 4 3 3 4 3 3 3 3 3 2 3 3 5 6 6 8 12 14 17 17 12 7 4 3 5 8 13 19 22 24 22 19 18 17 14 13 14 14 14 15 17 19 18 18 18 18 19 19 18 19 20 21 22 22 22 23 24 24 24 24 24 24 24 24 23 22 21 20 21 21 22 24 25 25 25 27 29 30 30 31
2 1 2 2 4 3 5 4 3 4 4 4 4 4 3 4 4 4 5 6 7 10 12 13 15 13 4 4 4 6 8 12 18 23 24 21 19 18 18 16 13 14 15 14 15 17 18 18 18 17 18 18 18 18 18 20 22 23 23 23 23 25 25 25 25 25 24 23 23 22 22 21 20 20 24 25 26 28 29 30 32 34 36 38 38 38
4 2 1 2 5 0 4 4 4 3 2 4 5 6 5 4 4 4 5 6 7 11 13 12 11 7 3 4 8 9 11 15 21 24 22 19 18 18 16 13 13 14 15 15 17 18 18 18 17 18 18 18 17 17 19 22 23 24 24 25 26 26 26 26 25 24 22 22 21 21 20 20 21 25 30 32 32 35 37 37 38 40 41 42 42 41
2 3 1 2 5 3 3 5 2 2 2 2 3 4 4 4 5 6 7 8 9 10 10 9 7 7 7 9 10 10 13 18 23 23 21 19 19 17 13 12 13 14 16 17 18 18 17 17 18 18 18 18 17 18 20 22 22 22 24 26 28 27 27 26 23 21 20 20 19 20 20 23 27 32 35 36 37 38 39 39 40 41 42 43 42 41
1 4 2 2 3 5 8 9 3 2 2 2 3 4 3 3 5 8 10 12 12 10 9 9 10 10 10 10 11 14 18 22 23 23 21 20 19 14 10 11 13 15 17 17 17 17 18 18 18 18 18 17 17 19 22 23 22 22 25 26 27 27 25 23 21 20 20 20 20 23 26 30 33 36 37 37 38 39 39 40 41 41 42 42 41 41
2 3 2 1 2 5 7 7 4 3 2 3 5 5 2 2 5 10 14 15 14 12 11 11 11 11 10 12 16 21 23 23 24 26 24 19 13 9 9 10 14 16 17 16 16 17 18 18 19 19 18 17 19 22 23 24 23 24 26 26 27 25 21 19 19 20 21 23 26 29 32 34 36 37 37 38 39 39 40 40 41 41 41 41 40 40
3 3 2 1 2 4 5 5 5 3 2 4 5 4 3 4 5 8 11 10 8 8 8 8 9 10 12 15 19 22 22 23 26 24 16 8 6 6 8 11 15 16 15 15 16 17 18 18 18 18 17 18 21 23 23 24 24 25 26 26 25 23 21 19 21 23 24 28 31 32 34 35 36 37 37 38 39 39 40 40 41 41 40 40 40 39
3 2 2 2 2 3 5 5 6 6 2 3 4 3 2 1 3 5 8 10 7 4 4 6 8 11 13 15 19 22 22 21 20 11 1 2 5 7 10 13 14 14 14 15 16 17 19 19 18 17 18 20 22 22 22 25 27 26 25 24 23 23 23 24 25 26 28 30 32 33 34 35 36 37 38 38 39 39 40 40 40 40 39 39 39 38
3 2 3 3 1 1 4 5 5 6 4 1 4 5 5 2 2 2 6 8 3 4 4 5 8 11 13 15 19 22 19 14 10 3 3 1 8 10 12 14 13 13 14 16 17 18 20 19 18 18 20 22 23 22 23 26 26 24 23 24 24 26 26 27 27 28 29 31 32 33 34 35 36 37 37 38 38 39 40 40 39 39 38 37 38 38
1 1 2 3 2 1 4 5 4 5 3 3 6 7 5 2 1 2 4 4 2 4 4 7 9 12 13 14 17 17 12 7 7 4 3 7 12 12 14 14 12 13 15 16 18 19 20 20 20 20 21 22 22 24 25 26 25 23 24 26 27 27 27 28 28 29 30 32 32 33 34 34 35 36 36 37 38 38 39 38 38 37 36 36 37 37
1 2 2 3 3 1 2 4 4 4 1 5 8 7 4 2 3 3 6 3 2 2 6 7 10 12 12 13 13 10 7 7 9 11 12 15 16 14 13 13 12 14 15 17 19 20 21 22 22 22 22 22 24 25 24 23 24 24 26 28 27 27 28 28 29 30 31 31 32 33 33 34 34 35 35 36 37 37 37 36 36 36 36 35 35 35
1 2 1 2 4 3 3 4 5 4 1 6 8 7 5 5 4 4 5 3 2 6 8 8 11 13 12 12 11 10 11 13 15 18 18 18 17 15 13 13 13 14 15 18 19 19 20 21 22 23 22 22 24 23 18 19 24 26 26 27 27 27 28 28 29 30 30 31 32 32 33 33 34 35 35 35 35 36 36 35 35 35 35 35 35 34
1 1 2 2 3 3 2 4 5 4 2 7 8 7 7 4 3 5 4 5 9 12 11 10 12 12 12 12 12 14 17 17 18 19 18 17 16 15 14 13 13 14 16 18 18 17 18 21 23 23 22 22 24 20 14 17 24 26 26 27 27 27 28 28 29 30 30 31 32 32 33 33 33 34 35 34 35 35 35 34 34 34 34 34 34 34
0 2 3 2 2 2 3 4 5 5 2 9 8 5 6 6 6 7 7 11 13 12 12 13 12 11 12 13 14 16 18 18 17 17 17 16 15 15 15 13 13 16 18 19 17 17 20 23 23 23 22 23 25 21 17 19 24 27 27 27 27 27 28 28 29 30 30 31 32 32 32 33 33 34 34 34 34 35 35 35 34 34 34 33 33 33
2 2 3 2 1 1 3 3 3 4 4 12 9 5 6 9 9 9 10 13 13 13 13 13 12 11 12 13 15 16 17 17 17 16 15 15 15 15 15 14 15 19 21 20 20 20 22 24 23 23 23 23 24 24 22 22 25 27 27 27 27 28 29 29 30 30 31 32 32 33 33 33 33 33 34 34 34 35 35 35 34 35 34 33 32 33
4 3 3 2 2 4 6 8 10 10 6 9 11 12 13 12 12 11 11 12 13 13 12 12 13 13 12 12 15 16 16 16 16 15 15 16 15 15 14 15 18 21 21 20 21 22 22 23 23 23 23 22 22 24 23 23 25 27 27 27 28 29 29 30 30 31 32 32 33 33 33 33 33 33 34 34 34 35 35 35 34 34 34 33 32 32
4 4 1 1 3 6 11 17 20 19 16 12 12 14 14 12 12 11 11 11 12 13 12 12 13 13 13 13 14 16 16 16 16 16 15 15 15 15 16 18 20 21 20 20 21 22 22 22 22 22 23 22 22 23 23 23 24 26 27 27 28 29 29 30 31 32 32 32 33 33 33 33 33 34 34 33 33 34 34 34 34 34 34 33 32 31
5 5 4 4 5 4 6 9 11 12 13 13 12 12 12 12 12 11 11 12 13 14 13 13 14 15 15 15 14 16 17 16 16 16 15 14 16 17 18 19 20 20 20 21 21 22 22 22 22 22 23 23 22 23 23 23 24 25 27 27 28 29 30 30 31 32 32 32 33 33 33 34 35 35 34 33 33 33 33 33 33 33 33 33 32 31
4 6 5 7 7 7 9 12 14 15 16 15 14 13 11 10 10 10 11 13 15 16 17 17 18 18 16 14 14 15 17 17 16 16 15 16 18 19 19 19 20 20 21 21 21 22 22 22 22 22 23 23 23 23 23 23 24 25 26 27 28 29 30 30 31 32 32 32 33 33 34 34 35 35 35 34 33 33 32 33 33 33 32 31 31 31
5 5 4 5 6 9 13 14 14 14 14 12 12 11 10 9 10 11 13 15 17 18 18 17 17 18 17 16 15 15 17 17 16 15 17 19 20 20 19 19 20 21 21 21 22 22 22 22 22 22 23 23 23 23 23 24 24 25 26 27 28 29 30 31 31 32 32 32 33 33 34 34 35 35 35 34 34 33 32 32 32 32 33 31 30 29
5 4 5 4 4 6 7 6 3 5 9 10 8 9 10 12 15 16 15 15 16 17 16 15 15 16 17 17 17 17 18 19 17 16 19 20 20 20 19 20 21 21 21 21 22 22 21 22 22 22 23 23 23 23 24 24 24 25 26 27 27 28 29 30 31 32 32 33 33 33 34 34 34 34 34 34 35 35 35 33 31 31 32 31 30 28
11 9 7 5 6 9 11 10 5 6 11 13 12 13 15 17 20 20 18 16 16 16 17 17 18 17 16 16 16 18 20 20 18 19 20 20 20 19 20 20 21 21 21 22 22 22 22 21 21 22 22 22 23 23 24 24 24 25 26 26 26 27 28 29 31 32 32 32 33 33 33 33 34 34 34 34 34 35 36 36 34 32 30 30 30 29
Wind_Direction
286 268 272 358 3 356 352 345 322 316 315 302 293 285 278 271 270 101 106 90 68 86 95 113 118 122 124 121 118 118 119 116 113 111 106 102 99 94 91 87 82 78 73 67 64 64 63 60 55 50 45 40 36 33 29 26 24 21 17 12 9 6 2 357 353 350 346 342 338 336 332 332 333 322 315 315 312 310 310 307 306 305 303 302 301 300
244 260 21 18 359 345 333 331 323 305 294 283 276 273 273 266 236 100 114 105 111 154 115 121 121 119 124 122 122 123 119 116 116 115 110 106 102 97 94 90 86 82 76 68 60 57 54 51 46 41 37 31 26 23 20 18 16 14 11 9 6 2 359 356 354 351 348 346 341 339 336 332 331 323 317 316 313 311 311 309 306 305 304 304 304 304
234 57 30 5 344 323 307 315 307 290 275 268 266 267 278 273 114 101 110 123 181 177 145 143 130 121 128 123 120 120 109 102 106 110 111 109 105 101 97 92 90 84 75 66 57 51 47 43 40 37 33 27 22 17 14 12 10 7 6 6 2 358 356 354 353 351 348 346 342 339 335 331 328 323 319 318 316 315 315 313 312 311 310 309 310 309
337 40 15 343 330 318 307 304 292 288 269 254 258 275 289 79 159 265 122 141 193 175 157 152 135 130 136 127 117 112 109 103 99 100 99 100 99 97 94 90 87 80 70 63 56 50 45 40 37 34 30 24 18 13 9 7 5 3 2 1 359 356 354 353 351 349 347 343 340 337 333 331 327 324 322 320 319 319 318 317 317 316 315 315 315 313
48 34 354 319 307 319 316 326 333 323 297 273 278 305 309 330 312 334 116 137 112 115 152 151 159 173 163 159 141 121 119 113 108 106 99 97 98 94 91 84 78 74 67 61 56 50 46 42 36 29 22 16 11 9 7 4 3 2 360 359 358 355 353 351 349 348 346 343 340 336 332 329 326 324 323 321 320 320 319 319 319 319 319 318 318 315
57 30 344 322 315 320 314 355 19 348 308 317 41 3 330 316 319 111 136 162 176 193 174 178 236 193 162 170 155 139 135 124 119 116 107 104 104 98 93 85 77 72 67 62 57 52 47 41 30 19 11 7 6 7 6 3 1 0 358 356 355 354 351 349 347 345 344 343 340 338 335 333 331 329 326 324 323 322 322 321 321 322 321 321 320 316
24 2 340 330 322 332 348 43 28 357 313 320 22 356 336 317 299 170 172 205 255 278 169 191 250 270 167 176 158 151 147 133 128 121 115 111 105 98 91 85 77 71 65 60 56 50 42 29 17 8 2 1 2 3 2 360 359 358 357 354 352 351 349 347 345 344 343 342 341 340 338 337 337 335 332 330 329 329 328 326 326 326 325 326 322 317
2 5 7 353 344 4 20 17 8 353 320 327 6 341 331 318 288 234 217 235 269 353 152 189 231 271 224 159 147 153 149 144 144 133 124 113 102 96 88 81 74 65 60 55 49 41 25 11 3 359 356 357 357 357 357 357 356 356 354 352 350 349 348 346 345 343 343 341 340 341 338 336 336 335 332 330 331 332 331 330 330 329 329 328 321 317
19 17 14 2 5 20 9 345 344 336 311 346 354 319 308 294 281 268 247 250 274 294 237 204 205 250 291 122 142 162 162 166 163 153 141 118 103 95 84 76 70 61 55 51 42 24 5 355 352 351 350 351 350 352 354 356 354 352 351 350 349 348 347 346 344 342 342 340 339 339 337 334 334 333 331 328 329 331 329 328 328 329 330 326 320 318
44 32 17 10 15 7 341 334 340 314 295 331 313 282 267 263 258 258 252 260 274 266 275 253 192 221 287 132 164 184 187 194 172 157 151 133 112 99 87 72 67 58 54 51 29 2 349 344 344 345 345 347 348 351 353 354 352 349 348 349 348 348 346 345 343 342 341 340 340 339 335 333 334 332 329 326 327 329 328 327 327 327 327 323 320 319
103 100 64 39 17 331 312 306 283 273 282 290 287 276 264 248 227 241 247 253 269 254 305 342 201 234 263 129 130 156 225 210 168 158 148 140 124 107 93 71 63 50 50 33 351 342 340 338 339 342 345 347 349 351 351 351 350 348 347 348 348 347 346 344 343 342 342 341 341 339 334 332 332 331 329 325 324 327 327 327 327 325 324 322 320 318
122 119 97 70 359 336 311 284 213 229 257 273 289 311 305 278 216 236 226 209 263 273 32 24 356 274 279 85 58 41 33 75 155 164 151 141 127 107 86 65 56 29 27 344 330 333 335 333 335 340 344 347 348 348 348 348 348 347 345 346 347 346 344 343 342 341 341 339 338 336 332 330 330 330 329 325 323 326 327 326 325 323 322 321 319 318
107 91 66 154 32 2 340 323 342 223 262 319 337 342 333 328 318 296 295 281 291 15 68 41 1 310 352 73 51 56 54 66 114 128 133 129 113 99 75 51 32 352 319 303 319 327 331 331 332 337 341 343 344 343 344 345 346 345 342 341 343 343 341 341 340 340 340 338 338 336 332 329 330 331 329 324 321 324 325 323 323 322 321 319 318 319
88 99 41 44 35 4 360 3 12 340 332 355 359 350 344 347 339 319 318 315 310 346 45 41 13 309 117 85 52 69 68 73 90 92 102 105 97 99 72 20 339 317 298 280 302 319 325 326 329 334 336 337 338 337 339 341 342 342 339 338 341 340 341 341 341 341 341 340 338 336 331 327 328 330 328 324 321 320 320 320 320 320 319 317 317 317
331 64 20 15 1 357 14 31 342 311 318 351 1 351 356 6 350 316 315 321 312 306 312 341 6 321 93 97 83 89 86 89 95 94 98 100 100 113 63 359 330 299 288 286 284 303 312 316 324 328 327 329 331 331 335 339 340 339 335 336 338 336 338 340 338 339 340 339 337 334 328 323 325 328 325 323 322 320 319 318 319 320 318 316 315 315
333 39 45 30 20 4 18 29 327 309 311 353 358 1 8 6 323 282 299 298 287 297 302 220 110 43 77 116 118 110 109 112 113 116 119 118 110 99 341 348 337 307 283 291 295 297 297 300 315 320 319 323 325 327 332 336 337 333 329 333 335 333 335 337 336 336 338 337 335 331 324 317 320 324 324 322 322 322 321 320 320 319 316 315 315 314
340 39 79 63 65 41 21 11 1 2 349 325 352 359 342 328 268 281 302 291 273 289 300 106 102 106 127 139 138 146 157 155 165 159 145 158 170 287 302 322 333 314 288 294 296 290 282 289 310 317 316 318 321 325 329 333 334 330 325 330 334 332 333 335 334 334 335 335 333 328 320 313 317 321 322 321 322 324 323 321 320 317 315 314 313 312
325 317 60 22 35 69 22 298 23 41 22 345 10 356 323 282 216 290 311 309 302 303 309 3 69 122 184 150 149 182 200 192 199 186 177 217 243 274 293 307 321 313 295 294 293 285 279 290 308 317 319 317 317 322 326 329 332 329 323 326 330 330 331 333 332 331 332 332 329 324 315 312 316 319 320 321 323 324 323 320 318 317 315 314 313 313
315 302 107 32 14 83 170 256 142 64 46 31 26 2 342 317 306 321 326 317 311 309 310 327 41 75 38 45 150 213 217 209 213 200 203 245 279 286 290 305 314 310 302 297 292 292 288 292 304 315 321 318 313 319 324 326 327 326 321 322 325 326 327 328 327 326 327 327 323 317 313 314 315 316 319 322 323 322 319 317 316 315 313 313 313 311
310 307 85 52 76 150 158 24 6 30 36 29 24 15 8 335 313 317 313 311 313 310 314 319 318 360 62 39 341 258 218 214 225 225 228 256 289 295 293 304 311 310 308 300 294 298 295 294 302 312 320 318 313 317 322 323 323 322 320 321 323 323 324 324 323 322 324 323 318 313 313 314 315 317 319 320 318 316 316 315 314 313 311 310 309 307
313 262 336 350 102 161 3 34 28 14 14 12 19 17 6 349 322 298 275 334 333 311 315 320 314 352 94 61 4 60 219 239 245 250 256 272 292 297 293 304 309 308 305 299 298 304 302 298 302 312 319 318 314 316 319 319 320 319 318 321 322 322 323 323 322 322 323 323 317 315 316 315 316 318 318 316 314 312 313 314 313 311 311 310 309 307
347 297 315 321 353 48 79 73 40 32 37 33 29 15 358 352 340 316 310 51 360 318 319 311 306 347 103 117 4 65 225 222 234 255 270 285 299 299 297 308 310 303 298 301 303 306 306 303 305 313 319 318 315 315 317 317 317 317 318 320 321 321 322 321 322 323 323 321 317 317 318 317 317 317 315 314 313 311 311 313 312 311 311 310 306 303
334 300 304 306 17 65 106 108 51 47 78 74 57 27 356 357 4 337 326 350 336 311 314 306 306 338 121 160 159 140 163 170 201 262 289 298 305 304 303 310 310 302 298 303 305 306 308 307 310 316 319 318 317 316 316 317 317 316 317 319 319 319 320 321 323 323 321 316 314 316 316 315 314 314 314 313 312 311 311 311 311 311 309 305 301 299
327 310 315 308 92 108 125 122 115 194 164 79 57 33 13 12 353 301 305 326 313 312 337 316 309 330 145 172 168 156 158 187 240 285 299 303 308 309 309 312 312 306 303 305 305 306 308 310 315 320 320 320 319 318 318 317 316 316 317 318 319 319 321 323 324 322 317 313 312 312 312 312 312 312 313 311 309 309 309 309 310 308 304 302 300 300
349 353 335 327 354 84 143 155 196 216 263 21 50 42 29 6 318 288 271 272 277 3 2 309 300 340 129 168 172 157 176 232 277 295 300 305 310 311 312 314 312 309 308 307 304 306 310 314 318 321 321 320 320 319 319 318 317 317 318 318 319 319 321 322 321 317 314 312 310 310 310 311 312 312 311 310 309 308 307 306 306 304 301 303 302 300
332 349 356 348 350 359 351 345 352 320 312 348 51 29 18 3 334 306 271 279 316 356 339 301 302 333 339 191 188 192 232 279 300 302 300 304 310 313 314 313 310 309 309 307 305 308 311 315 320 321 320 319 319 319 318 317 316 315 315 316 317 317 318 317 315 312 311 310 310 310 311 312 313 313 310 309 308 307 306 305 304 303 303 303 301 298
265 360 22 358 324 330 332 337 2 344 313 312 18 5 1 6 341 310 296 318 331 318 308 328 336 318 310 310 295 257 282 307 312 306 303 310 315 316 315 312 308 307 307 303 304 308 312 317 320 319 317 318 318 317 316 315 313 313 314 315 315 314 314 314 313 311 310 310 310 310 312 312 312 310 309 307 306 306 307 307 305 303 302 301 299 298
255 331 45 357 291 285 299 316 340 334 310 309 338 317 332 358 342 333 340 332 321 304 300 327 329 312 307 319 326 329 321 316 313 312 313 317 318 316 315 311 306 305 306 303 305 309 314 318 319 317 316 316 315 315 315 313 312 312 312 313 313 313 313 312 312 311 310 310 310 310 310 310 309 307 307 307 306 306 306 305 303 301 301 300 298 298
284 323 80 209 284 279 269 279 282 276 281 264 240 261 291 337 323 309 289 262 266 287 297 311 315 306 304 315 335 15 340 314 312 313 313 314 315 314 313 310 305 305 307 305 307 312 316 318 318 316 315 315 315 316 315 312 312 313 312 313 314 313 312 312 312 311 310 310 310 309 308 308 308 307 307 307 306 306 305 304 303 302 302 302 300 301
286 316 109 226 282 268 226 216 246 243 222 204 217 247 270 269 251 244 259 263 256 264 284 302 305 300 305 327 1 358 321 306 307 309 310 312 312 311 310 308 304 305 307 306 309 313 316 317 316 314 315 315 316 316 314 313 314 315 314 314 314 314 314 314 314 312 311 310 310 309 309 308 307 307 307 307 306 306 307 307 307 308 309 310 309 309
327 43 123 230 273 228 181 190 225 231 233 233 225 219 244 267 257 237 260 283 276 274 288 301 300 298 329 43 352 312 300 300 308 312 312 313 313 310 309 307 304 305 306 306 310 313 315 316 315 314 315 315 315 315 314 314 314 315 315 314 314 315 316 315 314 312 310 309 309 311 312 311 309 310 313 315 314 314 315 316 317 317 317 318 317 315
345 342 155 276 304 317 163 215 234 217 240 257 240 230 237 263 270 258 271 286 285 290 300 303 299 307 18 6 319 300 297 304 311 314 314 313 312 309 307 306 305 307 308 308 311 314 316 316 315 315 315 314 314 313 313 314 315 315 315 315 316 318 317 316 315 311 309 310 311 312 312 312 315 317 319 321 321 321 322 322 321 321 321 322 320 318
352 312 345 334 315 344 351 312 288 172 222 264 228 220 221 245 278 284 280 281 285 292 297 296 299 316 329 323 311 303 306 310 312 314 312 308 306 305 303 304 307 308 309 309 311 314 314 315 314 313 313 313 311 311 313 316 315 312 312 315 318 320 318 317 315 310 308 309 309 311 314 318 320 322 324 324 324 325 324 323 322 322 323 322 321 319
290 297 344 3 304 322 332 324 294 213 289 7 108 140 177 244 287 291 285 288 290 286 282 282 290 305 311 310 310 309 310 311 312 311 306 301 299 296 294 302 307 308 308 309 310 311 312 313 312 310 311 311 310 311 314 316 315 312 312 316 320 321 319 318 316 314 312 312 314 319 323 325 325 326 326 326 327 326 325 324 323 323 324 323 320 319
292 306 333 344 290 301 315 319 307 301 354 81 129 136 158 240 272 280 279 280 279 277 280 282 287 298 302 304 310 310 308 310 310 304 299 293 284 277 286 302 309 309 308 308 308 309 311 311 309 309 311 310 309 312 314 316 317 314 314 319 322 322 320 318 317 316 317 320 324 327 328 328 327 327 328 328 328 327 325 324 324 325 325 323 321 319
315 322 309 303 310 307 316 329 322 324 83 132 168 182 207 233 277 297 292 286 280 275 277 279 286 295 297 303 311 311 309 310 307 301 295 276 250 265 293 305 309 309 306 306 307 308 309 309 309 309 308 306 310 314 315 316 316 314 316 322 325 323 321 319 318 320 323 326 328 329 329 329 328 329 330 330 329 327 326 325 326 327 326 324 322 321
316 308 314 339 20 335 315 306 291 279 247 161 171 175 176 223 322 326 304 295 291 264 251 271 289 296 298 305 313 314 313 311 307 303 230 185 275 294 300 302 305 305 302 304 306 306 308 309 309 307 305 308 313 316 315 315 316 317 321 325 326 324 323 322 323 325 327 328 329 330 330 330 330 330 331 330 329 328 327 327 328 328 327 325 323 322
354 340 329 324 351 319 301 304 300 290 290 128 135 132 114 86 344 292 277 285 279 159 192 265 292 297 301 309 314 317 317 310 302 314 112 320 311 310 303 301 301 299 301 305 307 307 309 310 308 307 308 312 316 317 315 316 319 321 323 327 327 326 325 326 328 329 329 329 330 330 330 332 332 331 330 329 329 328 328 328 329 328 327 326 325 324
9 317 286 284 302 308 297 306 308 296 312 92 132 144 130 98 251 226 266 282 136 154 228 269 292 299 302 309 314 317 314 300 299 322 354 330 319 312 305 301 296 296 302 306 307 308 309 310 311 312 314 315 318 318 316 318 322 324 327 329 329 328 328 329 331 330 329 329 330 330 331 333 332 331 330 330 330 329 328 330 330 329 329 328 327 325
174 322 289 283 300 286 272 297 292 283 332 109 133 142 134 142 172 238 293 316 119 232 270 278 292 298 301 306 311 307 289 282 296 310 320 320 314 308 303 298 294 297 302 305 307 308 309 312 315 318 318 318 320 319 316 318 324 328 331 331 330 329 330 331 331 330 328 329 329 330 332 332 332 332 332 331 330 328 329 332 332 331 331 331 329 327
230 315 301 293 297 263 248 285 282 276 80 119 134 136 137 154 186 269 309 352 344 303 301 294 293 298 300 300 298 288 281 284 291 300 307 309 306 303 300 294 292 296 300 305 308 308 309 311 314 318 320 320 321 320 316 317 324 329 330 331 331 331 332 331 330 329 328 329 330 330 331 332 333 334 333 332 330 329 331 334 335 333 333 333 332 329
243 274 245 257 289 271 261 282 279 278 132 134 140 143 155 181 286 310 322 339 326 314 309 298 294 298 297 291 286 285 286 288 290 295 300 301 300 300 299 295 294 296 302 307 309 306 305 307 314 320 322 323 324 322 313 314 322 327 330 331 332 332 332 331 330 329 330 331 331 330 330 333 335 335 334 334 332 331 333 337 338 336 336 335 334 331
165 301 283 275 284 280 269 267 288 313 145 153 153 147 171 213 299 325 320 316 317 313 305 296 292 296 295 287 285 287 289 289 291 293 296 297 296 297 298 296 295 299 306 311 309 307 308 311 317 323 324 325 327 324 316 316 322 327 329 331 332 332 331 330 330 330 332 332 330 330 331 333 335 335 335 335 334 333 336 339 340 339 339 338 336 333
180 231 295 311 159 260 283 272 314 348 152 171 191 243 241 251 287 310 308 305 307 307 303 294 289 294 292 285 284 288 288 288 290 292 293 293 293 295 296 293 295 302 309 312 310 310 313 316 319 321 323 326 326 322 320 321 324 327 330 331 331 330 330 330 330 331 332 331 330 330 331 332 334 335 335 336 336 336 338 340 341 341 342 340 338 335
181 192 298 309 215 234 273 276 286 298 271 216 233 261 268 272 282 286 287 292 298 300 297 288 287 291 290 284 284 286 285 286 289 289 289 289 291 293 291 291 298 305 310 311 311 312 314 316 317 319 322 325 325 322 322 324 325 326 329 330 329 328 329 330 330 331 331 331 330 330 331 332 333 335 335 336 337 338 340 341 342 343 343 342 339 336
197 183 186 284 248 259 267 262 263 273 279 267 257 260 267 273 275 274 275 282 290 293 288 282 283 286 286 283 281 280 282 285 287 286 285 286 288 288 290 294 300 306 309 310 311 312 314 315 316 318 321 324 325 324 323 325 325 325 326 328 328 327 328 330 330 330 331 331 331 331 332 334 335 336 335 335 337 339 340 341 342 344 345 344 341 336
195 184 200 242 252 266 271 257 252 265 278 279 270 262 264 269 268 265 269 276 284 286 282 279 280 283 285 284 278 277 281 284 285 285 283 283 285 288 293 298 302 306 309 311 311 312 314 316 317 319 321 324 326 326 326 327 326 325 325 327 327 327 329 329 329 330 331 331 331 333 335 337 337 337 336 336 338 339 339 341 342 343 346 346 343 338
166 172 216 245 237 238 262 273 277 280 279 275 270 264 261 265 264 261 266 274 282 287 287 286 287 288 287 281 274 275 281 283 283 282 281 283 288 294 298 300 303 307 310 310 310 312 314 316 316 318 320 323 326 327 328 328 328 326 326 327 327 328 328 329 329 329 330 331 332 334 337 338 338 337 336 337 339 339 340 341 342 343 346 348 347 341
134 162 220 252 250 254 266 274 279 282 279 270 258 250 247 258 271 275 277 281 287 292 292 289 288 291 291 287 282 280 284 287 285 281 282 288 294 298 300 301 303 307 310 311 311 312 314 316 316 318 320 323 325 327 328 329 329 327 327 328 328 328 327 328 328 329 330 331 333 336 338 338 337 337 337 338 339 339 340 342 343 343 345 347 348 345
162 207 222 235 259 265 278 292 288 280 290 292 276 253 251 270 286 291 290 286 286 289 287 282 283 287 288 287 287 288 290 292 289 284 288 293 297 300 301 301 303 307 310 310 311 312 314 315 316 317 319 321 324 325 327 329 329 328 328 329 329 328 327 327 328 329 331 333 334 336 337 336 336 337 338 339 340 339 340 342 344 345 345 345 346 349
206 223 207 213 260 276 288 299 285 259 283 297 293 279 278 286 294 297 296 291 287 286 284 283 286 288 285 280 282 287 292 295 292 289 291 295 298 301 302 302 304 307 310 311 311 312 314 314 314 315 317 319 322 323 325 328 328 328 329 330 329 328 329 328 328 330 333 334 334 335 336 335 336 337 339 340 342 341 340 341 343 345 347 346 344 348